Location: Kershaw
(34.5481°N, 80.5823°W)
Time: 21:33:56
(UTC+00:00)

Vanguard 2 Rocket - Pass Details

Date: 08 October 2022
Orbit: 555 x 3321 km, 32.9° (Epoch: 28 November)

Event Time Altitude Azimuth Distance (km) Brightness Sun altitude
Rises 03:06:04 0° 250° (WSW) 7,263 11.8 -49.5°
Reaches altitude 10° 03:11:13 10° 250° (WSW) 6,106 11.3 -50.3°
Enters shadow 03:23:11 46° 242° (WSW) 3,367 9.6 -52.2°
